Tracking 29892 objects as of 21-Nov-2024
HD Live streaming from Space Station
objects crossing your sky now

STARLINK-31937

Track STARLINK-31937 now!
10-day predictions
STARLINK-31937 is classified as:


NORAD ID: 59871
Int'l Code: 2024-098P
Perigee: 450.2 km
Apogee: 452.1 km
Inclination: 43.0 °
Period: 93.5 minutes
Semi major axis: 6822 km
RCS: Unknown
Launch date: May 24, 2024
Source: United States (US)
Launch site: AIR FORCE EASTERN TEST RANGE (AFETR)
Your satellite tracking list
Your tracking list is empty




NASA's NSSDC Master Catalog

Two Line Element Set (TLE):
1 59871U 24098P   24325.42617236  .00001294  00000-0  38239-4 0  9995
2 59871  43.0028  94.5660 0001427 277.5221  82.5474 15.40707944 29102
Source of the keplerian elements: AFSPC